Weather Roundup
Issued by NWS

Home | Current Version | Previous Version | Graphics & Text | Print | Product List | Glossary Off
Versions: 1 2 3 4 5 6 7 8 9 10 11 12 13 14 15 16 17 18 19 20 21 22 23 24 25 26 27 28 29 30 31 32 33 34 35 36 37 38 39 40 41 42 43 44 45 46 47 48 49 50

252
NZUS93 KARX 271759
HRRWXR

CURRENT HOURLY OBSERVATIONS ACROSS
MUCH OF THE UPPER MISSISSIPPI VALLEY
NATIONAL WEATHER SERVICE LA CROSSE WI
1200 PM CST MON FEB 27 2017


...SOUTHEAST MINNESOTA...


CITY           SKY/WX    TMP DP  RH WIND       PRES   REMARKS
ROCHESTER      SUNNY     32  25  75 S10       30.02S WCI  24
ROCHESTER/MAYO FAIR      37  23  57 S12G17    30.02F WCI  29
WINONA         SUNNY     41  23  48 S7        30.05F
AUSTIN         SUNNY     34  25  69 S6        30.01F WCI  29
ALBERT LEA     SUNNY     36  21  55 S9        30.00S WCI  29
DODGE CENTER   NOT AVBL
PRESTON        SUNNY     35  24  65 S8        30.03F WCI  28
OWATONNA       SUNNY     36  21  55 S12       29.99F WCI  27
FARIBAULT      SUNNY     34  21  60 S12G18    29.99F WCI  25
$$

...ELSEWHERE IN MINNESOTA...


CITY           SKY/WX    TMP DP  RH WIND       PRES   REMARKS
MINNEAPOLIS    PTSUNNY   42  18  37 S15       29.97F
INTNL FALLS    CLOUDY    22   9  57 VRB6      29.92F WCI  14
DULUTH         CLOUDY    27  21  78 S7        29.93F WCI  19
RED WING       CLOUDY    37  19  48 S5        30.01F WCI  34
REDWOOD FALLS  CLOUDY    42  21  43 S15       29.91F
MANKATO          N/A     35  24  64 S15G22    29.97F WCI  25
WORTHINGTON    CLOUDY    37  23  56 S15       29.91F WCI  28
FAIRMONT       CLOUDY    34  24  67 S15       29.96F WCI  24
$$

...SOUTHWEST WISCONSIN...


CITY           SKY/WX    TMP DP  RH WIND       PRES   REMARKS
LA CROSSE      SUNNY     41  25  53 S14       30.06F
PRAIRIE DU CHI SUNNY     42  30  63 S6        30.07F
BOSCOBEL       MOSUNNY   44  30  57 S9        30.08F
LONE ROCK      CLOUDY    43  28  56 SW5       30.09F
PLATTEVILLE    MOSUNNY   41  37  85 S13       30.09S
FORT MC COY    SUNNY     40  24  53 S13       30.08S WCI  32
MAUSTON-NEW LI PTCLDY    40  22  49 S8        30.07F WCI  35
VIROQUA        FAIR      38  25  58 S9        30.06S WCI  32
WIS DELLS      PTSUNNY   38  24  56 S14       30.09S WCI  30
$$

...ELSEWHERE IN WISCONSIN...


CITY           SKY/WX    TMP DP  RH WIND       PRES   REMARKS
MILWAUKEE      MOSUNNY   44  31  60 SE14      30.14F
MADISON        PTSUNNY   39  31  72 S9        30.10F WCI  33
GREEN BAY      SUNNY     38  25  59 S10       30.12S WCI  31
EAU CLAIRE     NOT AVBL
BLACK RVR FLS  FAIR      43  17  34 S7        30.05F
MEDFORD        SUNNY     32  21  63 S13       30.03R WCI  22
WAUSAU         SUNNY     37  19  48 S10       30.04S WCI  30
WIS RAPIDS     SUNNY     39  20  46 S12G22    30.08S WCI  32
MARSHFIELD     SUNNY     37  19  48 S12       30.03F WCI  29
RICE LAKE      SUNNY     37  21  51 S9        30.01S WCI  31
$$

...NORTHEAST IOWA...


CITY           SKY/WX    TMP DP  RH WIND       PRES   REMARKS
WATERLOO       SUNNY     44  34  67 S8        30.03F
DUBUQUE        SUNNY     42  36  79 S14       30.08F
DECORAH        SUNNY     39  30  70 S7G14     30.03F WCI  34
MASON CITY     SUNNY     32  25  75 S8        30.02F WCI  25
CHARLES CITY   SUNNY     37  32  81 S8        30.03S WCI  31
OELWEIN        SUNNY     43  37  81 S13       30.04F
$$

...ELSEWHERE IN IOWA...


CITY           SKY/WX    TMP DP  RH WIND       PRES   REMARKS
DES MOINES     PTSUNNY   50  33  52 S8        30.01F
IOWA CITY      SUNNY     51  34  52 S15       30.09F
FORT DODGE     SUNNY     41  25  52 S7        30.00F
MARSHALLTOWN   SUNNY     47  35  63 S12       30.02F
CEDAR RAPIDS   SUNNY     48  35  60 S12       30.06F
$$

...NORTHERN ILLINOIS...


CITY           SKY/WX    TMP DP  RH WIND       PRES   REMARKS
CHICAGO-OHARE  MOSUNNY   49  32  52 S16       30.14S
CHICAGO-MIDWAY PTSUNNY   48  33  56 S12G20    30.15F
MOLINE         SUNNY     51  36  56 SW10      30.09F
ROCKFORD       MOSUNNY   49  34  56 S17       30.13F
PEORIA         SUNNY     53  34  48 S8        30.12F
$$

NOTE: "FAIR" INDICATES FEW OR NO CLOUDS BELOW 12,000 FEET WITH NO
SIGNIFICANT WEATHER AND/OR OBSTRUCTIONS TO VISIBILITY. WIND
SPEEDS ARE IN MILES-PER-HOUR.




USA.gov is the U.S. government's official web portal to all federal, state and local government web resources and services.